Weather in Kazan

Uzbekistan     39°48′12″N   67°02′44″E
temp.,
°C
wind,
m/s
gust,
m/s
humid.,
%
clouds,
%
prec.,
mm/h
press.,
hPa
HPBL,
m
18 may, tue
tue1823:00+22se45220 0.0 101099
02:00+21se34290 0.0 100976
05:00+20ese45260 0.0 100973
08:00+25ese46220 0.0 1009252
11:00+31w47110 0.0 10082860
14:00+32wsw7880 0.0 10073530
17:00+32w6680 0.0 10063391
20:00+26w23120 0.0 100780
19 may, wed
wed1923:00+23se45190 0.0 100779
02:00+21se33230 0.0 100640
05:00+20ese22220 0.0 100724
08:00+25se21150 0.0 1007220
11:00+30wnw36100 0.0 10073179
14:00+32w6670 0.0 10053804
17:00+32w5580 0.0 10053578
20:00+27wsw231059 0.0 100657
20 may, thu
thu2023:00+24ese331361 0.0 100636
02:00+22ese351589 0.0 100780
05:00+20ese342041 0.0 100773
08:00+26ese341770 0.0 1008281
11:00+32ne421024 0.0 10083365
14:00+33ne53925 0.0 10074672
17:00+32ne6511100 0.0 10084333
20:00+27se341889 0.0 1009202
21 may, fri
fri2123:00+23sse22265 0.0 101058
02:00+21e222890 0.0 101038
05:00+22ese2327100 0.0 101166
08:00+25e34219 0.0 1012328
11:00+31ne431625 0.0 10113057
14:00+31ne631797 0.0 10093689
17:00+18ne101466100 4.8 1014382
20:00+19se91457100 0.6 1014442
22 may, sat
sat2223:00+18ese5953100 0.6 1013225
02:00+18ese2353100 0.0 101276
05:00+17e2253100 0.0 101235
08:00+21ene1139100 0.0 1012267
11:00+26nnw222497 0.0 10111456
14:00+29nw331566 0.0 10102981
17:00+29nnw4315100 0.0 10092724
20:00+23e3631100 0.0 1010322